Tracking 28309 objects as of 1-Dec-2023
HD Live streaming from Space Station
objects crossing your sky now

NOAA 16 DEB

Track NOAA 16 DEB now!
10-day predictions


NORAD ID: 41232
Int'l Code: 2000-055EM
Perigee: 834.1 km
Apogee: 898.8 km
Inclination: 98.9 °
Period: 102.1 minutes
Semi major axis: 7237 km
RCS: Unknown
Launch date: September 21, 2000
Source: United States (US)
Launch site: AIR FORCE WESTERN TEST RANGE (AFWTR)

Note: This is SATELLITE DEBRIS
Your satellite tracking list
Your tracking list is empty




NASA's NSSDC Master Catalog

Two Line Element Set (TLE):
1 41232U 00055EM  23333.10438715  .00007382  00000-0  41655-2 0  9998
2 41232  98.9067  32.0802 0044686  33.5593 326.8394 14.10020582407991
Source of the keplerian elements: AFSPC